星链-35614(STARLINK-35614)

导读 | 豆包AI

STARLINK-35614是美国SpaceX公司于2025年10月25日发射的星链计划卫星,星链是全球规模最大的低轨卫星互联网项目,旨在为全球提供高速低延迟宽带服务。该卫星为星链V1.0批次,运行在近地轨道,采用平板设计搭配霍尔推进器,具备自主避撞能力,服役后将进一步完善星链星座的全球覆盖,助力缩小数字鸿沟。

Basic Information
目录编号:
66164
目录名称:
STARLINK-35614
国际标识:
2025-240U
轨道中心:
EARTH
卫星名称:
星链-35614
卫星全名:
星链-35614(STARLINK-35614)
卫星状态:
在轨 (已飞行212 天)
发射日期:
2025-10-25 UTC
国别 :
美国 (US)
星等 :
--
Orbit Information
数据来源 国际轨道数据 AOE轨道数据
星历时间 2026-05-25T10:03:36+0800
9小时前
查看轨道信息
2026-05-19T01:00:00+0800
6天前
查看轨道信息
半长轴 6840.824km 6840.889km
偏心率 0.0001014 0.0001278
轨道倾角 53.159° 53.159°
近地点辐角 78.283° 81.650°
升交点赤经 67.339° 97.155°
平近点角 281.829° 310.671°
近地点 461.993km 461.877km
远地点 463.381km 463.627km
周期 93.847分钟 93.849分钟
每日圈数 15.344056 15.343837
Detailed Information
固有亮度:
5
最大亮度:
2.5
卫星平台:
Starlink V1.0
覆盖范围:
全球
运营商:
太空探索技术公司
运营商所在国:
美国
制造商(研发单位):
太空探索技术公司
制造商所在国:
美国
使用方式:
暂无
Satellite Introduction
Starlink 计划是 SpaceX 推出的全球卫星互联网项目,通过发射低轨道卫星,为全球尤其是偏远地区提供高速、低延迟的互联网服务。自 2019 年起,Starlink 已部署数千颗卫星,旨在缩小全球数字鸿沟,推动互联网普及。该项目还为军事、航空等行业提供通信支持,带来广泛经济效益。
2D Orbit Map
3D Orbit Map
Orbit Altitude Analysis Chart
Orbit Inclination Analysis Chart
Orbit Comprehensive Analysis Chart
View Comprehensive Chart